Flag for Pakistan Weather past 2 weeks in Sukkur, Pakistan

Now
66 °F

Haze.


Feels Like: 66 °F
Forecast: 61 / 77 °F
Wind: 9 mph from Southeast

Location: Sukkur

Current Time: Feb 27, 2015 at 11:08:55 AM

Latest Report: Feb 27, 2015 at 10:00 AM


Visibility: 2 mi

Pressure: 29.95 "Hg

Humidity: 56%

Dew point: 50 °F

Location of SukkurLocation

Historic Weather in Sukkur — Graph

°F

Sukkur temperature yesterday

Maximum temperature yesterday: 77 °F (at 4:00 PM)
Minimum temperature yesterday: 46 °F (at 8:00 AM)
Average temperature yesterday: 61 °F

Past Weeks' High & Low Weather Summary

 TemperatureHumidityPressure
High91 °F (Feb 13, 3:00 PM)100% (Feb 18, 7:00 AM)30.12 "Hg (Feb 18, 7:00 AM)
Low46 °F (Feb 26, 8:00 AM)27% (Feb 25, 3:00 PM)29.65 "Hg (Feb 24, 4:00 PM)
Average71 °F68%29.85 "Hg
* Reported Feb 12 10:00 AM — Feb 27 10:00 AM, Sukkur, Weather by CustomWeather, © 2015

Note: Actual official high and low records may vary slightly from our data, if they occured in-between our weather recording intervals... More about our weather records

Advertising

Sukkur weather history for previous 24 hours

 ConditionsComfort  
Time TempWeatherWind HumidityBarometerVisibility
10:00 AM
Fri, Feb 27
66 °FHaze.9 mph56%29.95 "Hg2 mi
9:30 AM59 °FHaze.7 mph59%29.92 "Hg2 mi
8:00 AM50 °FHaze.7 mph76%29.89 "Hg1 mi
7:00 AM48 °FHaze.5 mph82%29.83 "Hg1 mi
6:00 AM46 °FHaze.No wind82%29.80 "Hg1 mi
5:30 AM46 °FHaze.No wind82%29.80 "Hg1 mi
4:30 AM48 °FHaze.No wind82%29.83 "Hg2 mi
12:30 AM54 °FHaze.No wind67%29.83 "Hg2 mi
12:00 AM55 °FHaze.No wind67%29.83 "Hg2 mi
11:00 PM
Thu, Feb 26
55 °FHaze.No wind72%29.86 "Hg2 mi
10:00 PM57 °FHaze.No wind67%29.83 "Hg2 mi
9:00 PM59 °FHaze.No wind68%29.83 "Hg2 mi
8:00 PM66 °FHaze.No wind52%29.83 "Hg2 mi
6:00 PM72 °FHaze.No wind41%29.83 "Hg2 mi
5:30 PM75 °FHaze.5 mph39%29.80 "Hg3 mi
4:00 PM77 °FHaze.No wind34%29.77 "Hg3 mi
3:00 PM75 °FHaze.No wind34%29.80 "Hg3 mi
2:00 PM73 °FHaze.7 mph31%29.86 "Hg3 mi
1:00 PM73 °FHaze.7 mph33%29.89 "Hg3 mi
12:00 PM72 °FHaze.7 mph36%29.89 "Hg3 mi
Weather by CustomWeather, © 2015

See weather overviewHow to use our weather pages